Starlink 11469

operational
NORAD ID: 62227 Int'l Des: 2024-231 Owner: SPXS Country: US Constellation: starlink
LEOCIRCULAR

Über Starlink 11469

Beschreibung wird geladen...

Live-Position

3D-Globus wird geladen...

Nächste Überflüge

Höhenverlauf

Altitude vs Time

uPlot chart will show altitude changes over time

Zweizeiliger Elementsatz

1 62227U 24231K 25260.26416049 .00308620 00000-0 24342-2 0 9994
2 62227 53.1564 236.1447 0002103 166.2095 193.8981 15.69951752 46174
Epoch: 17. Sept. 2025 • Age: 13 hours

Aktueller Status

Höhe 374.2 km
Geschwindigkeit 7.68 km/s
Subsatellitenpunkt -47.96°S, 177.98°E
Startdatum 5. Dez. 2024
Alter 0.7 years
Typ internet

Technische Details

Klassifizierung Payload
Masse 960.00 kg
Trockenmasse 910.00 kg
Gesamtmasse 960.00 kg
Länge 0.30 m
Durchmesser 4.10 m
Spannweite 29.00 m
Form Box + pan
Hersteller SPXS
Bus-Typ Starlink V2MD
Phasenstatus In Orbit
Besitzer/Staat SPXS/US

Große Konstellationen

Loading constellations...